Regional Weather Roundup
Issued by NWS

Home | Current Version | Previous Version | Graphics & Text | Print | Product List | Glossary On
Versions: 1 2 3 4 5 6 7 8 9 10 11 12 13 14 15 16 17 18 19 20 21 22 23 24 25 26 27 28 29 30 31 32 33 34 35 36 37 38 39 40 41 42 43 44 45 46 47 48 49 50
311
ASUS43 KDMX 241506
RWRIA

WEATHER ROUNDUP FOR IOWA
NATIONAL WEATHER SERVICE DES MOINES IA
900 AM CST SAT FEB 24 2018

NOTE: "FAIR" INDICATES FEW OR NO CLOUDS BELOW 12,000 FEET WITH NO
SIGNIFICANT WEATHER AND/OR OBSTRUCTIONS TO VISIBILITY.

* - THESE STATIONS ARE NOT NWS STATIONS...THUS NOT UNDER NWS
QUALITY CONTROL.  THEY ALSO DO NOT REPORT WEATHER SUCH
AS PRECIPITATION OR FOG.

IAZ001>003-012>014-020>022-031>034-043>046-241600-
   NORTHWEST IOWA

CITY           SKY/WX    TMP DP  RH WIND       PRES   REMARKS
CARROLL *      LGT SNOW  21  21 100 E3        29.98S
CHEROKEE *     CLOUDY    19  19 100 E3        30.00F
DENISON *      CLOUDY    23  21  93 E9        29.96F FOG     WCI  13
LE MARS *      LGT SNOW  18  18 100 NW6       30.02S WCI   9
ORANGE CITY *  CLOUDY    18  18 100 CALM      29.99F
SHELDON *      PTSUNNY   16  16 100 E10       29.98F WCI   3
SIOUX CITY     LGT SNOW  21  18  88 N6        30.00F FOG     WCI  13
SPENCER        FRZ RAIN  22  15  75 E9        30.00S WCI  12
STORM LAKE *   CLOUDY    18  18 100 E16       29.96F FOG     WCI   3
$$

IAZ055>058-069>071-079>083-090>094-241600-
   SOUTHWEST IOWA

CITY           SKY/WX    TMP DP  RH WIND       PRES   REMARKS
ATLANTIC *     PTSUNNY   27  27 100 E9        29.93F FOG     WCI  17
AUDUBON *      MIX PCPN  27  23  86 E12       29.95F WCI  16
CLARINDA *     CLOUDY    30  30 100 SE6G12    29.96F FOG     WCI  24
COUNCIL BLFS * FOG       27  27 100 SE6       29.95R VSB 1/2 WCI  20
CRESTON *      FOG       28  28 100 E17G23    29.92F VSB 1   WCI  16
HARLAN  *      CLOUDY    27  27 100 E12       29.97F FOG     WCI  16
LAMONI         CLOUDY    30  28  92 E8        29.93F FOG     WCI  22
RED OAK *      CLOUDY    28  28 100 SE6G13    29.95F FOG     WCI  22
SHENANDOAH *   FOG       30  28  93 SE6       29.96S VSB 1   WCI  24
$$

IAZ047>049-059>061-072>074-084-241600-
   CENTRAL IOWA

CITY           SKY/WX    TMP DP  RH WIND       PRES   REMARKS
AMES           CLOUDY    28  24  85 E14G22    29.98F FOG     WCI  17
ANKENY *       CLOUDY    30  27  86 SE15G23   30.00F WCI  19
BOONE *        CLOUDY    27  25  93 E21G32    29.96F FOG     WCI  13
CHARITON *     PTSUNNY   30  30 100 E17       29.97F FOG     WCI  18
DES MOINES     FRZ RAIN  30  26  85 SE16G22   29.98F WCI  19
GRINNELL*      MIX PCPN  30  28  91 E20       30.03F WCI  17
KNOXVILLE *    CLOUDY    30  28  93 SE13G23   29.98F FOG     WCI  20
MARSHALLTOWN   CLOUDY    28  26  92 E21       30.00F FOG     WCI  15
NEWTON *       CLOUDY    30  28  93 E18       30.00F FOG     WCI  18
PELLA *        MIX PCPN  31  28  92 E15       30.02F WCI  20
PERRY *        MIX PCPN  28  27  96 SE12      29.98F WCI  18
$$

IAZ004>006-015-016-023>025-035-036-241600-
   NORTH CENTRAL IOWA

CITY           SKY/WX    TMP DP  RH WIND       PRES   REMARKS
ALGONA *       MOSUNNY   21 N/A N/A SE13G18   30.00S FOG     WCI   9
CLARION *      CLOUDY    23  23 100 E17       29.99F FOG     WCI   9
ESTHERVILLE    CLOUDY    15  13  91 E9        30.02R FOG     WCI   3
FORT DODGE *   CLOUDY    20  18  92 E15       29.98F FOG     WCI   6
MASON CITY     CLOUDY    21  19  92 E10       30.04F FOG     WCI  10
FOREST CITY *  PTSUNNY  N/A N/A N/A E10       30.01F HAZE
WEBSTER CITY * CLOUDY    25  25 100 E15       29.97F FOG     WCI  12
IOWA FALLS *   CLOUDY    27  25  91 E14       30.01F FOG     WCI  16
$$

IAZ007>011-017>019-026>030-037>042-050>054-066-241600-
   NORTHEAST IOWA

CITY           SKY/WX    TMP DP  RH WIND       PRES   REMARKS
CEDAR RAPIDS   LGT SNOW  31  27  85 E13       30.07F WCI  21
CHARLES CITY * CLOUDY    25  25 100 E20       30.07F FOG     WCI  11
CLINTON *      CLOUDY    32  29  88 E14       30.11F WCI  22
DECORAH *      FAIR      25  25 100 SE12G17   30.09F WCI  14
DUBUQUE        CLOUDY    29  24  82 E13       30.11S WCI  19
MONTICELLO *   PTSUNNY   30  27  86 E9G15     30.11F WCI  22
OELWEIN *      PTSUNNY   27  27 100 E16       30.08F WCI  14
WATERLOO       CLOUDY    27  26  96 E16       30.05F FOG     WCI  15
$$

IAZ064-065-067-068-078-241600-
   EAST CENTRAL IOWA

CITY           SKY/WX    TMP DP  RH WIND       PRES   REMARKS
DAVENPORT      LGT RAIN  33  29  85 E12       30.11F FOG     WCI  24
IOWA CITY      LGT SNOW  33  28  81 E12       30.09F WCI  24
MT. PLEASANT * DRIZZLE   32  32 100 E10       30.06F WCI  24
MUSCATINE *    PTSUNNY   34  30  86 E9G16     30.10S WCI  26
QUAD CITIES    CLOUDY    34  32  92 E13       30.09F FOG     WCI  25
$$

IAZ062-063-075>077-085>089-095>099-241600-
   SOUTHEAST IOWA

CITY           SKY/WX    TMP DP  RH WIND       PRES   REMARKS
BURLINGTON     FRZ RAIN  32  30  92 E9        30.05F FOG     WCI  24
FAIRFIELD *    CLOUDY    32  30  93 E13       30.04F FOG     WCI  22
FORT MADISON * CLOUDY    32  32 100 E8        30.05F FOG     WCI  25
KEOKUK *       MIX PCPN  32  32 100 E10       30.04F WCI  24
OSKALOOSA *    DRIZZLE   31  29  94 E15       30.03F WCI  20
OTTUMWA        MIX PCPN  32  28  85 E15       30.02F FOG     WCI  22
WASHINGTON *   CLOUDY    32  32 100 E14       30.07F FOG     WCI  22
$$

ABBREVIATIONS USED IN REMARKS
   TC - TEMPERATURES IN CELSIUS
  WCI - WIND CHILL INDEX
   HX - HEAT INDEX
  VSB - VISIBILITY
$$





USA.gov is the U.S. government's official web portal to all federal, state and local government web resources and services.